Weather History for Bend, OR

Change the Weather History Date:

Friday, April 5, 2013

  Actual Average (KRDM) Record (KRDM)
Temperature  
Mean Temperature 47 °F 43 °F  
Max Temperature 55 °F 58 °F 78 °F (1960)
Min Temperature 39 °F 28 °F 13 °F (2012)
Degree Days  
Heating Degree Days 18 22  
Month to date heating degree days 113  
Since 1 July heating degree days 5564  
Cooling Degree Days 0 0  
Month to date cooling degree days 0  
Year to date cooling degree days 0  
Moisture  
Dew Point 28 °F    
Average Humidity 52    
Maximum Humidity 70    
Minimum Humidity 23    
Precipitation  
Precipitation 0.00 in 0.03 in 0.15 in (1969)
Month to date precipitation 0.11  
Year to date precipitation 2.39  
Sea Level Pressure  
Sea Level Pressure 29.95 in    
Wind  
Wind Speed 12 mph (SSW)    
Max Wind Speed 22 mph    
Max Gust Speed 28 mph    
Visibility 10 miles    
Events Rain    
T = Trace of Precipitation, MM = Missing Value Source: NWS Daily Summary

Daily Weather History Graph

Daily Weather History Graph

Search for Another Location

Airport:

Trip Planner

Search our weather history database for the weather conditions in past years. The results will help you decide how hot, cold, wet, or windy it might be!

Date:

Astronomy

Apr. 05, 2013 Rise Set
Actual Time 6:38 AM PDT 7:37 PM PDT
Civil Twilight 6:08 AM PDT 8:06 PM PDT
Nautical Twilight 5:33 AM PDT 8:41 PM PDT
Astronomical Twilight 4:57 AM PDT 9:18 PM PDT
Moon 3:58 AM PDT (4/5) 2:58 PM PDT (4/5)
Length of Visible Light 13h 57m
Length of Day
12h 58m
Waning Crescent, 22% of the Moon is Illuminated
Apr 5
Waning Crescent
Apr 10
New
Apr 18
First Quarter
Apr 25
Full
May 2
Last Quarter

Hourly Weather History & Observations

Time (PDT) Temp. Windchill Dew Point Humidity Pressure Visibility Wind Dir Wind Speed Gust Speed Precip Events Conditions
12:15 AM 44.6 °F 36.6 °F 32.0 °F 61% 29.92 in 10.0 mi SSW 19.6 mph 23.0 mph N/A   Partly Cloudy
12:35 AM 42.8 °F 38.6 °F 30.2 °F 61% 29.92 in 10.0 mi SSW 6.9 mph - N/A   Clear
12:55 AM 41.0 °F 35.2 °F 30.2 °F 65% 29.92 in 10.0 mi SSW 9.2 mph - N/A   Clear
1:15 AM 41.0 °F 34.7 °F 30.2 °F 65% 29.93 in 10.0 mi SSW 10.4 mph - N/A   Clear
1:35 AM 41.0 °F 35.2 °F 30.2 °F 65% 29.93 in 10.0 mi SSW 9.2 mph - N/A   Clear
1:55 AM 41.0 °F 35.8 °F 30.2 °F 65% 29.93 in 10.0 mi South 8.1 mph - N/A   Partly Cloudy
2:15 AM 41.0 °F 35.2 °F 30.2 °F 65% 29.93 in 10.0 mi South 9.2 mph - N/A   Partly Cloudy
2:35 AM 39.2 °F 33.6 °F 30.2 °F 70% 29.93 in 10.0 mi South 8.1 mph - N/A   Clear
2:55 AM 39.2 °F 33.0 °F 30.2 °F 70% 29.93 in 10.0 mi South 9.2 mph - N/A   Clear
3:15 AM 41.0 °F 35.2 °F 28.4 °F 61% 29.93 in 10.0 mi South 9.2 mph - N/A   Clear
3:35 AM 41.0 °F 34.7 °F 28.4 °F 61% 29.92 in 10.0 mi SSE 10.4 mph - N/A   Partly Cloudy
3:55 AM 41.0 °F 37.1 °F 28.4 °F 61% 29.93 in 10.0 mi South 5.8 mph - N/A   Partly Cloudy
4:15 AM 41.0 °F 33.5 °F 28.4 °F 61% 29.93 in 10.0 mi SSW 13.8 mph - N/A   Partly Cloudy
4:35 AM 41.0 °F 33.1 °F 28.4 °F 61% 29.93 in 10.0 mi SSW 15.0 mph - N/A   Scattered Clouds
4:55 AM 41.0 °F 32.5 °F 28.4 °F 61% 29.93 in 10.0 mi SSW 17.3 mph 20.7 mph N/A   Partly Cloudy
5:15 AM 41.0 °F 32.5 °F 28.4 °F 61% 29.94 in 10.0 mi SSW 17.3 mph 21.9 mph N/A   Clear
5:35 AM 41.0 °F 34.3 °F 28.4 °F 61% 29.95 in 10.0 mi SSW 11.5 mph - N/A   Clear
5:55 AM 41.0 °F 33.9 °F 28.4 °F 61% 29.94 in 10.0 mi SSW 12.7 mph - N/A   Clear
6:15 AM 41.0 °F 34.7 °F 28.4 °F 61% 29.95 in 10.0 mi SSW 10.4 mph - N/A   Clear
6:35 AM 41.0 °F 33.9 °F 28.4 °F 61% 29.95 in 10.0 mi SSW 12.7 mph - N/A   Clear
6:55 AM 41.0 °F 33.5 °F 28.4 °F 61% 29.95 in 10.0 mi SSW 13.8 mph 18.4 mph N/A   Clear
7:15 AM 42.8 °F 37.5 °F 28.4 °F 57% 29.95 in 10.0 mi SSW 9.2 mph - N/A   Clear
7:35 AM 44.6 °F 38.8 °F 28.4 °F 53% 29.96 in 10.0 mi SSW 11.5 mph - N/A   Clear
7:55 AM 44.6 °F 37.2 °F 28.4 °F 53% 29.96 in 10.0 mi SW 17.3 mph 24.2 mph N/A   Clear
8:15 AM 44.6 °F 37.8 °F 28.4 °F 53% 29.96 in 10.0 mi SSW 15.0 mph - N/A   Clear
8:35 AM 44.6 °F 37.2 °F 28.4 °F 53% 29.96 in 10.0 mi SW 17.3 mph - N/A   Clear
8:55 AM 46.4 °F 40.1 °F 28.4 °F 50% 29.97 in 10.0 mi SSW 15.0 mph - N/A   Clear
9:15 AM 48.2 °F - 28.4 °F 46% 29.97 in 10.0 mi SW 15.0 mph - N/A   Clear
9:35 AM 48.2 °F - 28.4 °F 46% 29.97 in 10.0 mi SSW 16.1 mph 21.9 mph N/A   Clear
9:55 AM 48.2 °F - 28.4 °F 46% 29.98 in 10.0 mi SW 21.9 mph - N/A   Clear
10:15 AM 50.0 °F - 26.6 °F 40% 29.98 in 10.0 mi SW 18.4 mph 25.3 mph N/A   Clear
10:35 AM 50.0 °F - 26.6 °F 40% 29.99 in 10.0 mi SW 18.4 mph 27.6 mph N/A   Clear
10:55 AM 50.0 °F - 26.6 °F 40% 29.98 in 10.0 mi SSW 13.8 mph 23.0 mph N/A   Partly Cloudy
11:15 AM 51.8 °F - 24.8 °F 35% 29.98 in 10.0 mi South 17.3 mph 27.6 mph N/A   Partly Cloudy
11:35 AM 53.6 °F - 26.6 °F 35% 29.98 in 10.0 mi SSW 16.1 mph 23.0 mph N/A   Partly Cloudy
11:55 AM 53.6 °F - 23.0 °F 30% 29.98 in 10.0 mi SSW 17.3 mph 26.5 mph N/A   Scattered Clouds
12:15 PM 53.6 °F - 23.0 °F 30% 29.97 in 10.0 mi SW 18.4 mph 21.9 mph N/A   Partly Cloudy
12:35 PM 53.6 °F - 21.2 °F 28% 29.97 in 10.0 mi SW 17.3 mph 24.2 mph N/A   Clear
12:55 PM 51.8 °F - 21.2 °F 30% 29.97 in 10.0 mi SW 15.0 mph 20.7 mph N/A   Clear
1:15 PM 51.8 °F - 19.4 °F 28% 29.97 in 10.0 mi WSW 13.8 mph 18.4 mph N/A   Mostly Cloudy
1:35 PM 53.6 °F - 19.4 °F 26% 29.96 in 10.0 mi WSW 10.4 mph - N/A   Scattered Clouds
1:55 PM 53.6 °F - 17.6 °F 24% 29.95 in 10.0 mi SW 9.2 mph - N/A   Clear
2:15 PM 53.6 °F - 19.4 °F 26% 29.96 in 10.0 mi SSW 12.7 mph - N/A   Clear
2:35 PM 53.6 °F - 19.4 °F 26% 29.95 in 10.0 mi SW 6.9 mph - N/A   Mostly Cloudy
2:55 PM 55.4 °F - 17.6 °F 23% 29.95 in 10.0 mi SW 12.7 mph 16.1 mph N/A   Mostly Cloudy
3:15 PM 53.6 °F - 23.0 °F 30% 29.95 in 10.0 mi WSW 17.3 mph 20.7 mph N/A Rain Light Rain
3:35 PM 51.8 °F - 23.0 °F 33% 29.96 in 10.0 mi WSW 10.4 mph 16.1 mph N/A   Partly Cloudy
3:55 PM 53.6 °F - 24.8 °F 33% 29.96 in 10.0 mi SW 10.4 mph - N/A   Scattered Clouds
4:15 PM 51.8 °F - 23.0 °F 33% 29.96 in 10.0 mi West 12.7 mph 18.4 mph N/A   Scattered Clouds
4:35 PM 48.2 °F - 33.8 °F 58% 29.97 in 7.0 mi SSW 15.0 mph 20.7 mph N/A Rain Light Rain
4:55 PM 46.4 °F 41.9 °F 32.0 °F 57% 29.97 in 8.0 mi West 9.2 mph 21.9 mph N/A Rain Light Rain
5:15 PM 46.4 °F 41.5 °F 32.0 °F 57% 29.97 in 9.0 mi SSW 10.4 mph - N/A Rain Light Rain
5:35 PM 46.4 °F 41.5 °F 33.8 °F 62% 29.95 in 10.0 mi South 10.4 mph - N/A   Clear
5:55 PM 48.2 °F - 32.0 °F 54% 29.94 in 10.0 mi SSW 18.4 mph - N/A   Clear
6:15 PM 48.2 °F - 30.2 °F 50% 29.94 in 10.0 mi SSW 17.3 mph - N/A   Clear
6:35 PM 48.2 °F - 30.2 °F 50% 29.94 in 10.0 mi SSW 15.0 mph 23.0 mph N/A   Clear
6:55 PM 46.4 °F 40.4 °F 32.0 °F 57% 29.94 in 10.0 mi SSW 13.8 mph - N/A   Partly Cloudy
7:15 PM 46.4 °F 42.4 °F 32.0 °F 57% 29.94 in 10.0 mi SSW 8.1 mph - N/A   Clear
7:35 PM 44.6 °F 40.2 °F 32.0 °F 61% 29.93 in 10.0 mi SSW 8.1 mph - N/A   Clear
7:55 PM 44.6 °F 40.7 °F 32.0 °F 61% 29.93 in 10.0 mi SSW 6.9 mph - N/A   Clear
8:15 PM 44.6 °F - 32.0 °F 61% 29.92 in 10.0 mi Calm Calm - N/A Rain Light Rain
8:35 PM 44.6 °F 42.2 °F 32.0 °F 61% 29.92 in 10.0 mi ESE 4.6 mph - N/A   Clear
8:55 PM 44.6 °F 42.2 °F 32.0 °F 61% 29.92 in 10.0 mi ESE 4.6 mph - N/A   Clear
9:15 PM 44.6 °F - 32.0 °F 61% 29.92 in 10.0 mi Calm Calm - N/A   Clear
9:35 PM 42.8 °F 41.1 °F 32.0 °F 66% 29.93 in 10.0 mi SSE 3.5 mph - N/A   Clear
9:55 PM 44.6 °F 42.2 °F 32.0 °F 61% 29.93 in 10.0 mi South 4.6 mph - N/A   Partly Cloudy
10:15 PM 42.8 °F - 32.0 °F 66% 29.93 in 10.0 mi Calm Calm - N/A   Partly Cloudy
10:35 PM 44.6 °F 41.4 °F 32.0 °F 61% 29.93 in 10.0 mi South 5.8 mph - N/A   Clear
10:55 PM 42.8 °F - 32.0 °F 66% 29.92 in 10.0 mi Calm Calm - N/A   Clear
11:15 PM 42.8 °F 41.1 °F 32.0 °F 66% 29.91 in 10.0 mi SSE 3.5 mph - N/A Rain Light Rain
11:35 PM 42.8 °F - 32.0 °F 66% 29.91 in 10.0 mi Calm Calm - N/A   Partly Cloudy
11:55 PM 42.8 °F 35.4 °F 30.2 °F 61% 29.91 in 10.0 mi SSW 15.0 mph - N/A   Clear